Ord, NE

12:18 PM CDT on April 28, 2017 (GMT -0500)
Sharp

Weather History for KODX - March, 2013

Change the Weather History Date:

Friday, March 22, 2013

  Actual Average Record
Temperature  
Mean Temperature 27 °F 40 °F  
Max Temperature 30 °F 54 °F 71 °F (1997)
Min Temperature 23 °F 27 °F 5 °F (2002)
Degree Days  
Heating Degree Days 38 25  
Month to date heating degree days 705 640  
Since 1 July heating degree days 5674 5657  
Cooling Degree Days 0 0  
Month to date cooling degree days 0 0  
Year to date cooling degree days 0 0  
Moisture  
Dew Point 23 °F    
Average Humidity 93    
Maximum Humidity 100    
Minimum Humidity 85    
Precipitation  
Precipitation 0.16 in 0.05 in 1.10 in (1979)
Month to date precipitation 0.46 0.67  
Year to date precipitation 2.08 1.48  
Sea Level Pressure  
Sea Level Pressure 29.94 in    
Wind  
Wind Speed 7 mph (SE)    
Max Wind Speed 13 mph    
Max Gust Speed 17 mph    
Visibility 2 miles    
Events Fog , Snow    
T = Trace of Precipitation, MM = Missing Value Source: NWS Daily Summary

Daily Weather History Graph

Daily Weather History Graph

Search for Another Location

Airport or City:

Trip Planner

Search our weather history database for the weather conditions in past years. The results will help you decide how hot, cold, wet, or windy it might be!

Date:

Astronomy

Mar. 22, 2013 Rise Set
Actual Time 7:35 AM CDT 7:50 PM CDT
Civil Twilight 7:07 AM CDT 8:18 PM CDT
Nautical Twilight 6:35 AM CDT 8:50 PM CDT
Astronomical Twilight 6:01 AM CDT 9:24 PM CDT
Moon 3:16 PM CDT (3/22) 4:40 AM CDT (3/22)
Length of Visible Light 13h 10m
Length of Day
12h 15m
Waxing Gibbous, 77% of the Moon is Illuminated
Mar 22
Waxing Gibbous
Mar 27
Full
Apr 2
Last Quarter
Apr 10
New
Apr 18
First Quarter

Hourly Weather History & Observations

Time (CDT) Temp. Windchill Dew Point Humidity Pressure Visibility Wind Dir Wind Speed Gust Speed Precip Events Conditions
12:00 AM 24.8 °F 16.9 °F 21.2 °F 86% 29.92 in 1.5 mi ESE 6.9 mph - 0.00 in Snow Light Snow
12:44 AM 24.8 °F 16.1 °F 23.0 °F 93% 29.92 in 0.8 mi ESE 8.1 mph - 0.01 in Snow Light Snow
12:53 AM 25.0 °F 17.1 °F 23.0 °F 92% 30.00 in 0.5 mi ESE 6.9 mph - 0.02 in Fog , Snow Snow
1:24 AM 24.8 °F 16.9 °F 21.2 °F 86% 29.91 in 1.0 mi ESE 6.9 mph - 0.01 in Snow Light Snow
1:31 AM 24.8 °F 15.3 °F 21.2 °F 86% 29.91 in 0.8 mi ESE 9.2 mph - 0.01 in Snow Light Snow
1:40 AM 24.8 °F 16.9 °F 21.2 °F 86% 29.91 in 1.0 mi ESE 6.9 mph - N/A Snow Light Snow
1:47 AM 24.8 °F 15.3 °F 21.2 °F 86% 29.91 in 1.0 mi ESE 9.2 mph - 0.01 in Snow Light Snow
1:53 AM 24.1 °F 13.7 °F 21.9 °F 91% 29.98 in 1.5 mi ESE 10.4 mph - 0.01 in Snow Light Snow
2:02 AM 24.8 °F 16.1 °F 21.2 °F 86% 29.91 in 1.8 mi ESE 8.1 mph - 0.00 in Snow Light Snow
2:10 AM 24.8 °F 16.9 °F 21.2 °F 86% 29.91 in 2.5 mi ESE 6.9 mph - 0.00 in Snow Light Snow
2:34 AM 24.8 °F 16.9 °F 21.2 °F 86% 29.91 in 1.8 mi ESE 6.9 mph - 0.00 in Snow Light Snow
2:53 AM 24.1 °F 15.2 °F 21.9 °F 91% 29.98 in 1.8 mi ESE 8.1 mph - 0.01 in Snow Light Snow
3:04 AM 24.8 °F 16.1 °F 21.2 °F 86% 29.91 in 1.0 mi ESE 8.1 mph - 0.00 in Snow Light Snow
3:18 AM 24.8 °F 16.1 °F 21.2 °F 86% 29.91 in 1.5 mi SE 8.1 mph - 0.00 in Snow Light Snow
3:29 AM 24.8 °F 16.1 °F 21.2 °F 86% 29.91 in 2.0 mi SE 8.1 mph - 0.00 in Snow Light Snow
3:37 AM 24.8 °F 17.9 °F 21.2 °F 86% 29.91 in 2.0 mi SE 5.8 mph - 0.00 in Snow Light Snow
3:51 AM 24.8 °F 17.9 °F 21.2 °F 86% 29.91 in 1.5 mi ESE 5.8 mph - 0.01 in Snow Light Snow
3:53 AM 24.1 °F 16.0 °F 21.9 °F 91% 29.98 in 1.5 mi ESE 6.9 mph - 0.01 in Snow Light Snow
4:26 AM 24.8 °F 16.9 °F 21.2 °F 86% 29.90 in 0.8 mi SE 6.9 mph - 0.01 in Snow Light Snow
4:39 AM 24.8 °F 16.1 °F 21.2 °F 86% 29.90 in 1.0 mi SE 8.1 mph - 0.01 in Snow Light Snow
4:53 AM 23.0 °F 13.9 °F 21.0 °F 92% 29.97 in 1.0 mi SE 8.1 mph - 0.02 in Snow Light Snow
4:58 AM 23.0 °F 14.7 °F 21.2 °F 93% 29.89 in 1.0 mi SE 6.9 mph - 0.00 in Snow Light Snow
5:12 AM 24.8 °F 16.9 °F 21.2 °F 86% 29.89 in 1.2 mi ESE 6.9 mph - 0.00 in Snow Light Snow
5:23 AM 24.8 °F 17.9 °F 21.2 °F 86% 29.89 in 1.0 mi SE 5.8 mph - 0.01 in Snow Light Snow
5:39 AM 24.8 °F 16.9 °F 21.2 °F 86% 29.89 in 1.0 mi SE 6.9 mph - 0.01 in Snow Light Snow
5:48 AM 24.8 °F 16.1 °F 21.2 °F 86% 29.88 in 1.2 mi SE 8.1 mph - 0.02 in Snow Light Snow
5:53 AM 24.1 °F 15.2 °F 21.0 °F 88% 29.96 in 1.5 mi SE 8.1 mph - 0.02 in Snow Light Snow
6:16 AM 24.8 °F 16.1 °F 21.2 °F 86% 29.87 in 2.0 mi SE 8.1 mph - 0.00 in Snow Light Snow
6:27 AM 24.8 °F 16.9 °F 21.2 °F 86% 29.87 in 3.0 mi SE 6.9 mph - 0.00 in Snow Light Snow
6:42 AM 24.8 °F 15.3 °F 21.2 °F 86% 29.87 in 8.0 mi SE 9.2 mph - 0.00 in   Overcast
6:53 AM 24.1 °F 15.2 °F 21.0 °F 88% 29.95 in 8.0 mi SE 8.1 mph - 0.00 in   Overcast
7:38 AM 24.8 °F 15.3 °F 21.2 °F 86% 29.87 in 5.0 mi SE 9.2 mph - 0.00 in   Overcast
7:53 AM 24.1 °F 15.2 °F 21.0 °F 88% 29.95 in 5.0 mi SE 8.1 mph - 0.00 in   Overcast
8:53 AM 24.1 °F 15.2 °F 21.9 °F 91% 29.96 in 7.0 mi SE 8.1 mph - N/A   Overcast
9:53 AM 24.1 °F 14.4 °F 21.9 °F 91% 29.97 in 3.0 mi SE 9.2 mph - N/A   Overcast
10:18 AM 24.8 °F 15.3 °F 21.2 °F 86% 29.90 in 2.5 mi SE 9.2 mph - N/A   Overcast
10:32 AM 24.8 °F 16.1 °F 23.0 °F 93% 29.89 in 1.5 mi SE 8.1 mph - N/A   Overcast
10:53 AM 25.0 °F 15.5 °F 23.0 °F 92% 29.98 in 1.8 mi SSE 9.2 mph - N/A   Overcast
11:53 AM 26.1 °F 16.2 °F 24.1 °F 92% 29.99 in 1.2 mi SSE 10.4 mph - N/A   Overcast
12:53 PM 27.0 °F 17.3 °F 24.1 °F 89% 29.99 in 2.0 mi SSE 10.4 mph - N/A   Overcast
1:31 PM 26.6 °F 17.5 °F 24.8 °F 93% 29.91 in 3.0 mi SSE 9.2 mph - N/A   Overcast
1:53 PM 27.0 °F 18.7 °F 25.0 °F 92% 29.98 in 2.5 mi SSE 8.1 mph - N/A   Overcast
2:53 PM 28.0 °F 20.8 °F 26.1 °F 92% 29.97 in 2.0 mi SSE 6.9 mph - N/A   Overcast
3:53 PM 28.9 °F 23.9 °F 27.0 °F 92% 29.96 in 2.5 mi SSE 4.6 mph - N/A   Overcast
4:53 PM 28.9 °F 22.8 °F 27.0 °F 92% 29.97 in 2.5 mi SE 5.8 mph - N/A   Overcast
5:53 PM 30.0 °F 24.1 °F 27.0 °F 88% 29.97 in 2.5 mi SE 5.8 mph - N/A   Overcast
6:53 PM 30.0 °F 26.5 °F 28.0 °F 92% 29.99 in 2.5 mi SE 3.5 mph - N/A   Overcast
7:53 PM 30.0 °F 24.1 °F 28.0 °F 92% 30.00 in 2.5 mi ESE 5.8 mph - N/A   Overcast
8:04 PM 30.2 °F 24.3 °F 28.4 °F 93% 29.93 in 3.0 mi SE 5.8 mph - N/A   Overcast
8:53 PM 30.0 °F 26.5 °F 28.0 °F 92% 30.03 in 3.0 mi SE 3.5 mph - N/A   Overcast
9:53 PM 30.0 °F 24.1 °F 28.0 °F 92% 30.03 in 3.0 mi ESE 5.8 mph - N/A   Overcast
10:53 PM 30.0 °F 23.2 °F 28.0 °F 92% 30.03 in 3.0 mi East 6.9 mph - N/A   Overcast
11:37 PM 30.2 °F 24.3 °F 28.4 °F 93% 29.95 in 2.5 mi East 5.8 mph - N/A   Overcast
11:53 PM 28.9 °F 21.9 °F 28.0 °F 96% 30.04 in 2.5 mi ESE 6.9 mph - N/A   Overcast